Theta_e
322 322 323 323 323 323 322 322 322 322 321 322 321 321 321 321 321 321 321 321 320 320 320 321 321 321 322 322 322 323 321 315 313 313 310 310 324 328 344 346 351 368 367 357 354 347 343 344 343 348 346 345 343 337 339 339 339 330 320 312 309 311 314 318 320 319 326 323 325 328 331 330 328 333 333 338 336 335 337 336 340 345 344 345 346 349 349 348
323 323 322 322 322 322 322 322 321 321 321 322 321 321 321 321 320 320 320 320 320 320 320 321 321 321 321 322 323 323 318 313 311 310 312 327 337 346 346 352 363 367 361 351 347 342 339 339 341 346 343 338 347 334 339 332 341 327 319 314 311 313 319 327 327 326 325 323 328 330 331 331 330 332 334 330 329 330 330 333 338 337 340 343 345 347 347 346
322 322 322 322 322 322 321 321 321 320 320 321 321 321 320 320 320 320 320 320 319 320 320 321 321 321 322 322 323 322 316 310 312 307 312 339 340 345 356 362 366 366 351 347 348 344 342 340 343 344 340 335 335 328 335 331 335 329 326 316 315 321 324 329 329 326 328 329 327 329 332 332 334 336 337 330 328 330 328 328 332 334 334 339 342 345 345 345
322 322 322 322 322 321 321 320 320 320 320 320 320 320 320 320 319 319 319 319 319 319 320 321 321 321 321 322 323 319 312 311 307 308 313 347 345 348 362 365 366 363 348 347 349 346 346 346 345 344 338 334 334 337 330 334 327 327 325 317 319 325 323 325 329 329 330 331 328 330 333 331 334 336 336 331 328 328 329 333 333 334 336 338 341 343 344 343
321 321 321 321 321 321 320 320 319 319 320 320 319 319 319 319 319 319 319 319 319 319 320 320 321 321 322 323 323 314 310 299 303 311 319 349 348 351 364 365 366 353 344 344 346 345 343 343 343 341 337 330 332 330 331 334 335 327 325 327 326 325 323 328 329 330 330 331 329 329 327 327 336 336 334 331 325 325 330 335 337 338 339 340 340 342 343 343
321 321 321 321 320 320 320 319 319 319 319 319 319 319 319 318 318 318 319 319 319 319 320 320 321 322 322 322 315 312 306 295 309 315 354 353 350 353 365 366 366 346 342 342 340 341 340 339 341 335 333 331 326 322 327 335 336 321 324 328 329 329 326 330 330 330 331 329 328 327 331 334 331 329 333 333 329 330 338 341 338 340 341 343 343 342 341 343
320 320 320 320 320 319 319 319 319 319 319 319 319 319 318 318 318 318 318 319 319 319 320 320 321 322 321 320 312 312 303 305 312 317 354 352 350 356 366 367 364 342 338 339 339 338 338 329 338 334 331 326 328 327 330 332 335 325 322 326 327 330 327 330 330 330 330 329 327 332 335 330 330 325 332 332 334 338 342 343 340 342 343 343 341 341 341 344
320 320 320 319 319 319 319 319 319 319 319 318 318 318 318 318 318 318 319 319 319 319 320 320 321 321 320 312 313 307 305 305 312 326 356 351 349 354 363 360 355 341 330 337 337 335 333 324 328 334 328 325 326 329 333 329 331 325 324 327 328 329 329 331 331 330 329 329 332 334 329 328 331 328 332 331 336 340 341 342 342 342 341 341 340 340 341 344
319 319 319 319 319 318 318 318 319 319 318 318 318 317 317 317 318 318 318 319 319 319 320 320 321 321 319 312 310 301 300 309 321 341 343 338 342 344 349 348 347 338 331 329 333 329 329 326 323 332 324 326 333 328 330 326 319 329 328 329 328 328 330 332 331 329 329 330 332 328 326 329 332 334 329 331 336 340 341 340 341 340 339 339 339 340 341 343
319 319 319 319 318 318 318 318 318 318 318 317 317 317 317 317 318 318 319 319 319 319 319 321 321 321 314 312 306 298 305 337 346 345 333 340 343 340 336 342 342 336 329 326 323 321 325 324 325 330 331 328 332 327 332 326 320 330 329 329 328 329 328 329 328 327 329 329 330 326 325 328 334 331 321 331 338 340 339 338 339 339 338 339 339 339 341 343
319 319 319 318 318 318 318 318 318 318 317 317 317 317 317 317 317 318 319 319 319 319 319 320 322 320 312 313 303 301 318 332 343 334 336 343 338 332 328 338 339 333 329 324 322 322 322 325 329 332 332 325 327 324 328 328 332 329 329 326 324 324 325 326 326 327 328 326 330 328 326 331 333 330 323 328 338 340 336 336 337 338 338 338 339 339 341 343
319 318 318 318 318 317 318 318 318 317 317 317 317 316 316 317 318 318 319 320 319 319 319 320 322 316 312 309 304 306 323 334 340 332 336 337 331 328 329 338 335 332 326 321 322 322 323 324 331 331 321 330 321 325 322 329 330 327 327 318 319 320 320 322 323 327 328 326 331 331 325 325 329 326 329 334 339 339 337 336 335 336 338 338 338 339 340 342
318 318 318 318 317 317 317 318 317 317 317 316 316 316 317 317 318 318 319 320 320 320 320 321 321 315 312 303 304 315 321 337 338 335 334 321 319 322 332 334 329 324 322 317 319 321 323 323 328 326 329 323 322 316 323 324 323 326 323 319 316 315 313 322 328 328 327 329 332 331 312 313 324 330 333 337 337 338 337 336 335 336 337 337 338 338 338 342
318 318 317 317 317 317 317 317 317 317 316 316 316 316 317 317 318 319 320 319 320 320 320 322 315 312 310 304 311 319 320 331 337 333 330 322 321 316 321 330 331 326 323 320 320 323 322 324 325 327 326 320 317 324 319 318 323 314 318 318 311 308 307 317 326 326 325 330 332 330 311 311 316 324 333 339 338 336 335 337 336 336 337 337 338 337 337 340
318 317 317 317 317 317 317 317 316 316 316 315 316 316 316 317 318 320 321 321 320 320 321 321 313 311 306 306 315 328 341 328 329 330 332 319 316 314 314 323 326 326 323 321 322 325 327 324 322 318 319 322 320 317 312 312 312 315 309 304 307 308 308 315 324 327 324 330 333 324 310 316 320 324 335 340 338 336 335 337 337 336 337 337 338 338 338 339
317 317 318 317 317 317 316 315 315 315 315 315 315 316 316 317 319 321 323 322 322 321 317 314 313 311 304 302 313 337 319 316 317 325 330 319 316 312 313 313 317 322 322 319 321 320 319 324 316 315 315 316 315 311 309 308 306 308 308 305 306 307 308 310 320 329 331 329 330 324 312 314 321 332 336 341 338 335 335 335 334 334 337 338 338 338 339 339
318 318 318 317 316 316 315 315 315 315 315 315 315 316 317 318 320 323 323 322 320 318 314 312 316 316 302 312 319 314 315 316 319 323 324 318 311 309 312 311 313 317 319 319 320 320 317 315 316 320 317 311 313 310 306 300 300 301 308 306 308 308 308 306 312 323 328 330 324 327 319 318 325 332 336 340 337 334 333 332 332 332 335 336 339 339 339 338
317 317 316 316 316 315 315 315 315 315 315 315 315 316 315 319 320 323 320 318 316 316 314 316 313 306 303 307 308 311 315 315 319 321 321 320 314 312 312 310 315 316 318 319 321 315 317 311 316 309 307 312 312 309 302 297 302 304 303 303 304 307 310 308 307 312 329 329 324 324 323 322 329 332 335 338 337 334 332 331 331 331 334 335 337 339 339 338
316 315 316 316 316 316 316 316 315 315 315 315 315 317 321 322 319 315 312 313 304 300 298 304 307 299 295 304 309 314 317 315 320 321 317 318 320 314 316 318 318 317 314 313 314 315 315 314 312 308 304 304 307 310 307 306 309 308 308 306 306 304 306 305 310 316 328 324 320 322 320 322 326 330 333 338 338 334 333 333 330 331 333 335 335 337 338 338
315 315 315 315 315 315 316 315 315 315 315 312 310 311 313 310 304 307 314 312 306 302 310 307 312 311 310 309 310 316 321 319 315 317 318 322 317 315 314 317 318 316 312 309 309 312 314 306 305 306 307 307 309 311 311 312 311 310 310 308 306 305 306 309 310 312 327 322 321 322 323 321 326 329 332 336 338 336 333 331 330 330 332 334 335 337 338 339
315 315 314 314 315 315 315 315 314 314 314 311 309 309 308 307 301 300 304 308 310 310 307 308 311 310 310 312 313 314 309 311 315 314 318 326 316 314 310 312 312 310 310 311 309 311 314 306 306 309 311 309 307 310 311 309 310 310 307 305 304 305 303 308 309 312 326 320 314 321 322 321 326 329 332 336 336 333 332 331 330 330 332 334 335 337 338 340
315 315 314 314 315 315 315 314 314 313 313 309 309 309 310 313 315 313 307 300 306 310 310 310 312 310 313 314 316 318 314 309 310 312 318 319 314 310 310 309 308 307 311 308 311 307 303 302 307 309 310 310 308 308 308 307 306 306 304 303 302 303 306 309 312 320 326 321 312 320 320 320 326 328 332 333 334 335 335 333 332 331 331 333 335 336 338 340
315 315 314 315 315 314 314 314 313 312 310 309 307 308 308 312 314 314 311 307 301 308 309 309 309 309 310 315 315 317 310 307 304 310 313 317 311 311 311 307 308 308 307 308 306 301 302 306 309 309 307 306 305 306 305 304 304 303 302 300 299 304 302 299 305 324 325 318 313 319 319 319 328 330 331 334 335 334 336 336 333 332 331 332 334 335 336 337
315 315 315 314 315 314 313 313 312 310 306 307 307 309 314 315 315 314 309 302 302 308 310 311 311 310 310 312 315 314 310 309 308 308 317 315 310 311 311 308 307 307 305 304 305 304 306 307 305 306 305 305 303 303 304 302 301 303 303 302 302 303 303 303 302 317 321 324 322 316 307 308 323 325 326 332 336 334 334 334 334 333 333 334 336 337 338 337
315 315 315 315 314 314 312 311 307 309 311 308 307 312 314 316 316 314 307 303 303 304 314 314 315 313 314 318 317 313 313 313 313 313 316 316 314 312 310 312 309 305 304 302 303 302 304 308 308 305 303 303 303 301 302 303 299 298 302 304 304 305 304 303 305 308 305 303 317 315 300 298 310 324 325 329 331 331 333 332 332 333 333 333 334 335 338 340
314 315 314 314 314 312 311 308 308 310 308 307 312 317 316 316 316 314 305 297 298 301 307 305 316 309 318 309 315 313 314 310 315 316 318 316 323 315 312 307 309 305 305 302 303 301 304 306 306 305 304 301 301 300 301 304 298 297 299 304 305 305 304 302 305 310 300 299 307 317 303 297 304 319 324 328 328 329 331 331 331 332 332 333 334 335 337 338
314 314 314 314 313 312 308 307 309 310 308 312 316 316 318 318 317 313 305 292 291 305 300 307 308 307 312 310 310 311 298 301 313 318 317 325 317 318 310 305 305 306 307 304 302 299 302 301 301 301 302 300 298 296 300 304 298 296 302 306 304 303 302 302 307 309 301 308 313 315 304 300 300 305 318 329 327 328 328 329 331 331 332 333 334 336 337 339
314 314 314 314 312 311 307 308 307 308 311 314 316 316 317 318 317 313 300 288 290 305 300 301 306 313 311 308 313 306 305 309 308 313 318 320 318 315 313 303 304 303 305 301 295 301 302 302 301 301 299 296 296 299 301 304 299 298 302 306 306 306 305 305 307 305 304 304 298 304 314 303 300 305 323 327 323 325 326 328 329 331 332 333 334 336 337 339
314 313 313 313 312 311 311 308 308 307 313 315 315 315 317 317 311 303 295 286 300 299 313 304 314 310 307 308 308 306 305 308 304 308 316 318 317 313 308 307 303 302 304 303 297 300 304 304 304 303 301 299 301 300 302 304 299 302 304 305 308 307 308 307 302 303 303 299 297 298 309 300 299 304 322 326 323 322 325 328 329 330 331 333 334 336 338 339
313 312 312 312 310 310 308 310 306 312 314 314 314 315 317 310 305 299 293 286 301 294 304 304 303 300 304 302 301 304 304 303 307 310 314 312 315 312 311 313 307 306 304 302 302 303 305 315 315 306 302 302 303 303 301 303 305 306 307 307 304 304 304 306 302 301 297 295 294 301 309 302 296 301 318 318 320 324 325 326 329 331 331 333 335 336 337 338
312 312 311 311 305 309 310 305 310 313 313 314 315 314 310 305 300 292 289 295 302 300 306 301 300 303 301 299 297 301 302 301 306 310 308 310 308 307 305 305 304 298 295 297 299 300 300 301 304 306 311 307 305 303 303 303 304 306 304 303 301 303 301 300 297 298 296 290 295 300 309 304 297 297 308 323 326 327 326 325 327 329 330 332 334 337 338 339
311 311 311 309 310 312 306 306 311 314 313 314 317 310 304 298 296 291 289 307 294 297 297 297 301 300 299 301 298 298 299 300 305 307 304 304 300 304 301 295 296 294 291 292 296 297 297 301 301 303 319 307 303 301 301 300 301 304 302 302 298 293 294 294 292 296 293 292 301 304 307 304 301 302 306 318 324 327 328 328 329 330 331 332 334 336 338 339
310 310 310 310 310 308 309 312 313 313 314 316 312 304 300 292 291 292 296 297 294 299 298 301 299 299 298 298 298 298 300 297 301 305 306 303 301 303 302 301 299 299 293 294 293 291 295 297 299 300 303 310 305 298 294 298 298 301 299 296 292 290 286 286 287 291 291 297 301 303 305 300 302 306 309 310 316 326 329 331 331 332 332 332 333 336 338 339
309 309 306 309 309 310 312 313 313 314 315 319 308 305 299 293 294 315 301 297 296 303 302 300 299 298 299 296 296 297 296 299 302 303 305 301 301 298 300 301 300 300 297 294 294 288 288 292 297 300 299 303 303 303 301 299 298 297 298 299 298 292 291 290 288 291 291 292 295 302 301 295 299 306 315 314 316 321 328 332 332 332 333 334 334 336 337 338
308 307 308 309 309 310 311 312 313 314 312 308 304 298 295 291 296 297 301 303 301 302 301 302 299 296 298 297 297 299 299 297 303 302 301 301 298 296 297 300 301 300 295 295 296 294 293 291 298 301 304 304 303 304 304 301 300 299 303 302 300 300 299 297 293 292 293 294 295 301 299 300 302 309 315 319 320 321 326 329 331 331 332 333 333 334 335 337
307 308 310 309 308 312 311 312 312 312 309 306 302 297 294 298 299 304 304 307 302 299 299 299 297 296 294 294 296 299 302 298 299 301 300 301 300 299 299 300 301 302 297 295 294 292 294 292 298 301 304 303 304 306 305 302 294 299 303 299 299 304 303 300 304 303 299 294 294 297 300 301 307 309 312 315 319 318 326 328 330 330 331 332 332 333 335 337
308 311 311 314 314 314 312 312 313 311 309 302 298 294 299 303 306 305 320 310 308 300 298 294 295 295 293 293 294 297 299 300 299 300 297 300 299 300 298 300 302 302 303 302 294 295 291 294 298 300 300 303 304 305 305 305 303 300 298 299 306 308 305 302 295 292 290 289 290 298 298 298 297 298 309 310 314 316 325 327 328 329 330 331 332 333 334 336
308 310 317 321 317 313 313 313 314 309 304 302 297 313 306 303 309 309 310 310 302 301 296 295 294 298 293 294 294 295 299 296 295 300 296 299 297 303 302 300 302 305 304 302 300 296 297 291 294 297 299 301 302 304 302 306 308 303 301 306 304 298 297 297 294 290 290 289 289 293 299 299 298 301 306 307 312 314 322 325 325 328 329 330 332 333 334 336
306 312 312 316 315 315 314 315 314 308 301 300 294 299 310 308 310 309 311 312 306 302 297 297 295 298 295 294 295 297 296 293 295 296 295 297 297 302 304 304 302 304 305 304 300 297 298 291 293 298 302 302 301 299 298 296 303 307 306 302 307 304 296 297 297 295 292 290 290 289 293 295 302 302 307 307 309 313 321 323 326 328 330 331 332 333 334 335
311 309 309 318 316 316 316 315 308 303 300 297 295 300 304 304 307 311 311 310 306 303 298 298 298 296 297 297 297 295 296 296 296 296 296 297 299 301 302 305 302 301 303 304 301 302 297 297 289 294 299 300 296 297 297 296 298 300 302 296 301 304 304 301 301 299 297 289 288 288 288 292 300 306 310 310 310 310 319 323 326 327 330 331 332 333 334 335
311 307 311 319 318 317 316 307 304 303 301 300 302 302 304 303 307 308 310 312 310 310 302 298 297 297 297 296 298 297 296 295 297 296 297 297 298 295 301 304 301 299 301 301 301 298 297 296 292 293 296 292 298 300 300 299 299 298 299 298 299 298 302 297 295 299 297 296 291 288 290 294 302 310 313 312 312 312 316 321 324 327 329 331 332 334 335 336
307 304 310 319 318 318 306 301 301 302 301 300 299 304 305 317 310 309 309 310 310 308 307 303 299 300 297 298 297 297 296 294 297 298 298 297 298 300 300 304 301 302 302 297 298 299 298 297 296 293 294 298 302 304 302 303 302 300 302 301 302 299 299 295 290 293 294 296 299 293 293 295 306 311 313 313 314 315 317 323 324 326 329 330 332 334 335 337
305 306 315 319 319 316 306 300 307 305 301 302 307 307 308 307 306 308 307 306 303 308 303 302 301 300 299 298 297 297 295 294 297 296 296 299 299 302 302 301 302 302 302 298 300 301 318 302 295 295 296 299 301 301 304 305 303 300 299 300 300 300 300 300 299 296 294 295 296 296 294 294 304 312 314 314 313 315 319 322 324 327 329 330 331 333 334 335
306 307 312 318 320 313 304 300 299 299 301 306 307 307 310 308 306 304 304 304 305 303 302 302 304 305 304 302 300 298 298 298 301 298 300 299 302 303 303 300 303 301 302 300 297 308 299 296 294 291 288 293 295 299 297 301 299 297 300 298 300 301 301 300 297 297 298 294 295 292 290 293 305 313 319 324 325 325 326 327 328 327 329 331 331 331 333 335
306 310 312 314 319 312 303 301 302 300 303 303 304 305 307 305 306 307 306 305 305 304 303 302 304 304 304 304 304 304 305 302 301 304 302 302 302 308 306 301 303 302 304 313 329 307 299 298 293 289 289 289 287 287 291 294 296 298 299 300 302 301 299 298 298 297 291 295 298 294 292 297 303 310 315 321 322 323 325 328 331 329 329 331 331 332 333 334
308 303 308 307 310 309 307 308 306 303 302 303 304 305 305 304 308 308 306 305 305 306 306 307 306 305 304 306 303 303 304 305 301 302 301 302 302 305 305 307 312 314 332 334 320 306 299 301 296 293 293 293 295 295 299 307 296 296 299 300 300 299 299 298 294 292 293 292 297 296 297 299 305 309 310 313 317 323 324 326 327 329 330 330 330 332 333 334
308 302 304 302 307 307 304 306 306 306 304 307 301 304 303 304 306 307 308 306 308 305 308 307 306 304 304 304 302 303 303 303 304 301 301 302 303 305 305 307 306 323 333 322 319 302 298 298 299 299 299 299 301 301 300 307 298 297 297 300 300 299 299 297 295 293 296 298 293 299 300 303 304 307 310 312 314 317 320 322 325 326 328 330 331 332 336 332
303 308 308 310 302 298 304 304 308 307 309 310 303 307 303 303 304 303 307 309 308 308 304 307 306 305 305 303 302 301 302 301 301 301 302 303 301 304 304 305 304 314 315 305 311 302 297 297 298 301 300 302 301 301 300 299 299 300 300 299 301 302 299 298 296 296 299 296 295 297 301 304 306 308 312 312 314 318 321 323 325 327 329 330 330 332 332 331
309 308 308 312 305 305 305 308 312 311 308 308 305 307 303 302 302 304 305 306 306 307 304 301 303 305 305 305 302 300 302 296 300 303 302 302 302 301 301 302 305 304 305 302 302 302 298 295 298 298 299 300 300 300 300 299 302 303 304 303 303 301 297 297 297 299 300 301 301 302 304 308 309 310 312 315 322 324 328 327 327 328 329 329 330 330 332 331
304 304 304 308 308 306 308 308 310 307 303 311 302 305 305 302 302 304 306 304 302 305 306 304 303 304 305 305 305 301 304 302 303 302 305 303 300 303 302 302 301 303 303 303 305 303 300 298 312 300 298 300 300 302 301 301 303 303 305 306 306 304 303 304 303 308 309 305 306 306 306 307 311 313 315 324 328 329 327 326 326 325 327 329 329 330 331 332
308 310 310 304 302 307 313 309 307 305 300 304 303 306 308 304 304 304 305 307 304 304 305 304 306 305 305 304 304 305 305 304 305 306 307 303 301 304 302 301 304 304 303 303 302 302 300 299 298 295 296 294 298 299 299 299 301 303 304 306 305 304 302 305 306 309 304 305 306 306 305 306 311 313 324 323 325 326 326 326 326 326 329 329 329 330 331 332
310 311 312 307 302 310 305 308 306 301 300 304 308 307 307 305 307 306 304 307 308 308 306 306 307 303 303 304 303 305 307 306 306 306 305 305 305 305 305 305 302 305 302 304 305 302 299 297 296 294 293 292 296 299 299 298 299 298 301 304 305 307 309 308 312 313 312 310 305 303 306 308 310 315 321 320 322 323 324 327 327 326 326 329 329 330 331 332
Wind_Speed
15 15 15 15 15 15 16 16 16 16 16 16 16 15 15 14 14 14 14 14 13 13 13 13 13 13 13 14 14 12 11 6 6 1 1 10 7 6 5 8 14 17 16 9 8 9 6 6 5 2 1 1 2 0 0 1 2 1 1 1 1 2 1 3 1 3 1 0 1 2 1 3 4 3 2 2 4 3 3 4 2 4 6 5 9 12 11 13
15 15 15 16 16 16 16 16 16 16 17 16 16 16 15 14 14 14 14 14 13 13 13 12 13 12 12 12 13 11 9 1 3 3 15 3 6 8 9 12 17 21 15 9 12 11 8 7 5 3 3 2 1 2 0 0 1 2 1 1 2 3 3 3 2 2 1 2 2 2 2 2 2 6 5 3 2 2 2 2 4 7 7 9 11 12 12 14
15 15 15 15 16 16 16 16 17 17 17 17 16 16 15 15 14 14 14 13 13 12 12 12 11 12 11 11 12 10 7 3 1 5 11 17 7 7 12 17 19 21 17 13 11 11 9 6 5 5 2 2 1 1 2 1 2 2 2 1 4 4 2 4 3 3 4 2 0 1 2 3 1 2 4 4 7 4 5 5 1 5 9 11 11 11 12 13
15 15 15 16 16 16 16 17 17 17 17 16 16 16 16 15 15 14 13 13 12 12 11 11 11 11 11 11 11 7 1 1 1 2 3 10 15 9 16 19 20 16 5 2 8 7 3 5 5 4 1 2 3 1 2 2 1 1 2 3 3 2 1 2 5 6 4 2 2 2 3 4 2 3 3 8 9 6 4 6 8 11 13 13 13 11 12 12
16 16 16 16 16 16 16 17 17 17 17 17 16 16 16 15 14 14 13 13 12 11 11 10 11 10 11 10 12 1 1 1 2 2 1 13 15 13 19 19 18 9 4 5 6 4 4 7 6 3 1 2 1 1 4 1 2 2 6 4 2 1 2 5 6 5 4 3 3 2 2 2 2 2 3 9 6 7 8 7 3 8 14 15 14 12 9 13
16 16 16 17 17 17 17 17 17 17 17 17 17 16 16 15 15 14 13 12 12 11 10 10 10 10 10 11 1 2 0 2 1 2 6 15 16 15 20 17 14 7 7 8 7 5 5 4 6 3 1 1 1 2 2 1 2 3 3 5 5 5 4 2 2 5 7 3 3 3 3 4 4 1 2 5 3 2 5 6 7 8 11 13 14 14 12 13
17 17 17 17 17 17 17 18 17 17 17 17 17 17 17 16 15 14 13 12 11 10 10 9 9 10 10 6 2 1 1 6 3 4 10 14 15 16 20 16 11 6 6 8 6 6 6 3 6 2 0 1 4 3 6 2 2 1 6 1 7 5 9 6 3 7 5 7 4 3 4 3 4 1 1 4 2 0 2 8 9 8 9 11 12 12 14 13
17 17 17 18 18 18 18 18 18 17 17 17 17 17 17 16 15 14 13 11 11 10 9 8 8 9 7 3 0 1 1 4 4 3 11 13 12 14 16 8 8 5 5 9 9 7 5 3 6 1 2 2 1 1 2 0 3 4 5 3 3 2 5 5 4 4 5 3 4 6 5 3 6 3 3 5 4 3 4 8 10 11 10 10 11 12 12 13
17 18 18 18 19 19 19 18 18 18 17 17 17 17 17 16 15 14 12 11 9 9 8 8 8 7 4 0 1 1 3 4 3 2 13 12 10 11 12 6 5 8 4 4 5 4 5 5 2 5 3 2 1 5 4 3 6 6 10 3 4 5 5 4 4 5 5 3 4 4 2 2 4 4 3 4 6 5 6 9 10 12 12 12 12 12 11 12
17 18 18 19 19 19 20 19 19 18 18 17 17 17 17 16 15 13 12 11 9 8 8 7 7 4 2 1 1 2 3 1 3 5 11 14 11 11 9 7 10 7 6 5 3 5 8 2 7 2 3 4 3 5 1 4 5 3 5 4 6 9 7 4 6 2 6 2 6 3 3 2 2 2 3 1 8 8 8 9 9 13 12 12 11 9 9 12
17 18 18 18 20 20 20 20 19 18 18 17 17 17 17 16 14 13 12 11 9 6 5 6 4 4 0 0 3 5 4 3 1 4 10 13 14 11 10 8 11 9 6 3 6 6 1 2 4 2 1 4 3 5 0 4 1 5 5 6 7 6 5 8 2 2 5 1 6 5 3 4 2 2 3 2 6 10 10 9 10 11 12 11 11 10 8 9
18 18 18 18 18 20 20 21 20 19 19 18 17 18 17 16 15 13 13 11 9 6 4 4 3 1 0 1 2 5 4 2 2 4 7 12 9 8 9 11 13 12 10 7 5 4 3 4 2 1 3 2 4 4 3 3 1 4 3 7 10 7 7 4 1 2 4 1 6 5 4 1 4 4 2 3 7 9 11 9 10 10 10 10 10 9 9 9
18 18 18 18 19 20 20 20 20 19 19 18 18 18 18 16 15 14 12 9 5 5 4 3 3 1 0 0 7 8 2 2 6 7 4 3 4 7 5 2 3 3 2 1 2 2 5 4 2 5 2 3 3 1 4 7 5 3 0 1 9 7 7 5 1 3 4 0 7 4 1 5 6 7 1 4 9 9 10 9 8 8 9 9 9 9 8 8
19 19 18 18 19 20 20 20 19 18 19 19 19 18 18 17 15 12 9 5 4 5 4 4 1 1 1 4 6 3 3 3 7 7 4 2 8 2 5 4 1 1 1 1 2 3 5 4 4 6 3 5 5 2 8 5 3 3 3 3 0 5 3 3 2 3 4 3 8 1 1 4 3 4 2 5 8 12 12 11 9 8 9 9 9 8 8 8
19 19 19 19 20 21 20 19 18 18 19 19 20 19 19 17 14 10 6 4 4 2 4 1 2 0 0 6 4 6 8 3 5 4 6 7 6 3 1 4 4 4 2 2 2 1 2 3 3 3 6 1 3 3 5 3 4 2 3 2 4 1 5 9 1 5 2 0 5 2 0 5 4 2 5 5 7 9 11 11 10 8 9 9 8 9 8 7
20 19 17 19 20 21 20 19 19 18 18 19 20 22 18 13 11 8 4 3 2 3 2 0 0 1 2 3 1 4 1 1 2 5 4 4 6 4 5 4 3 2 2 3 3 4 4 2 2 3 5 4 3 4 5 6 4 4 2 4 3 1 5 8 2 3 5 5 1 2 2 3 1 2 6 6 7 6 10 9 10 8 7 8 7 8 7 5
18 16 15 17 20 20 20 19 19 19 20 20 21 19 15 10 7 4 2 3 2 2 0 0 0 0 2 1 1 1 2 3 2 2 3 1 4 5 7 3 1 1 1 3 3 0 2 0 2 1 1 4 0 1 3 4 4 3 1 0 1 2 6 5 5 2 1 7 4 3 1 1 2 2 7 7 6 7 9 10 10 8 7 5 6 7 8 8
17 17 17 16 19 21 20 19 19 20 20 21 20 16 11 8 2 5 2 2 0 1 2 2 1 1 5 3 0 0 1 1 2 4 5 2 5 7 6 3 1 3 3 0 0 2 0 1 1 4 4 1 1 1 2 2 1 2 3 5 6 4 4 9 5 2 4 3 3 4 5 4 3 5 7 8 6 7 9 10 11 10 9 7 6 8 9 8
20 20 18 16 18 20 20 20 20 21 20 20 17 11 3 6 2 0 1 0 0 0 1 0 1 1 2 2 4 5 0 4 4 6 4 6 1 2 1 2 5 6 2 2 0 3 1 1 2 3 6 4 4 5 7 3 2 2 2 3 3 6 10 8 6 3 7 5 4 6 7 6 5 7 7 8 8 7 6 7 8 6 7 7 8 7 8 9
20 19 17 16 18 20 20 19 19 19 19 12 6 3 0 0 1 0 1 0 3 4 1 3 2 2 4 4 3 3 1 1 4 1 5 2 8 2 1 1 2 2 4 4 0 3 3 3 5 8 9 3 1 4 3 2 1 5 3 3 6 6 10 8 6 4 6 1 6 7 5 1 5 7 8 10 9 6 7 8 9 9 8 6 8 10 10 11
19 17 16 16 18 20 18 15 18 19 18 5 4 0 0 1 2 2 2 6 5 4 3 4 7 3 3 3 4 3 3 1 1 2 4 3 5 7 1 1 2 2 1 3 4 1 3 4 10 11 7 2 2 2 2 3 2 3 4 4 9 3 8 11 7 1 5 5 2 1 4 2 4 6 7 8 10 11 10 9 9 10 10 9 11 11 12 11
21 19 16 16 17 19 18 17 15 19 9 0 0 0 0 2 0 1 1 4 3 7 7 4 2 4 3 6 5 2 2 2 3 1 0 4 4 4 1 2 2 5 1 1 1 1 2 8 11 3 1 1 2 3 2 2 5 3 4 4 6 9 5 12 2 3 1 3 4 0 4 2 4 6 7 10 10 7 9 10 10 11 11 9 10 10 9 7
22 20 18 17 16 16 18 17 16 13 1 0 2 2 2 1 2 3 1 0 5 2 2 2 3 6 6 2 2 6 2 2 4 1 4 2 2 3 5 2 2 2 1 1 6 1 3 9 8 3 4 4 5 3 3 3 2 4 4 3 8 5 3 8 4 4 4 1 2 1 3 3 3 5 7 7 7 3 4 7 7 9 11 11 11 11 10 10
21 22 19 19 19 18 17 17 15 2 1 1 2 5 3 3 4 4 2 1 3 4 3 5 3 2 5 1 4 5 5 2 3 5 2 5 6 2 4 3 2 1 2 1 4 6 10 2 1 5 1 1 4 5 2 3 7 3 5 6 8 11 7 9 6 3 1 1 2 2 2 3 3 4 5 7 7 4 5 6 6 7 7 8 7 8 10 12
22 21 20 20 19 17 19 17 2 2 2 1 5 7 7 6 2 2 1 2 1 3 2 0 2 3 4 0 3 2 2 1 3 2 4 6 3 3 2 1 3 2 2 3 3 2 11 6 0 2 3 4 5 7 7 4 6 5 7 13 14 13 11 5 4 4 4 3 2 2 5 2 1 6 6 4 6 8 6 9 9 8 8 7 8 10 9 8
21 20 20 18 17 19 18 2 1 3 5 3 4 2 4 4 4 3 3 2 0 3 2 1 1 1 1 0 2 2 3 1 3 3 8 6 4 3 0 0 2 3 3 3 4 3 6 2 2 6 8 4 4 6 3 6 6 1 9 8 12 11 8 6 3 2 2 2 2 1 2 6 2 4 6 5 7 9 6 8 9 8 9 9 9 9 10 10
20 20 20 19 16 15 5 0 2 5 2 0 1 4 5 5 1 4 0 3 1 1 3 2 1 1 1 1 3 2 2 3 0 4 4 2 5 0 3 3 0 0 3 2 2 5 1 3 2 3 3 3 2 6 4 10 5 3 5 4 4 4 5 6 4 7 3 1 1 3 3 2 6 4 3 5 7 8 9 9 8 9 9 10 10 10 10 10
17 18 19 18 13 5 3 6 7 1 4 1 3 5 6 4 0 1 2 2 1 1 1 1 2 1 1 1 6 3 2 2 4 3 3 4 4 1 1 3 6 6 2 4 7 5 2 1 3 2 1 3 6 7 3 9 6 7 6 3 3 5 7 4 5 6 1 1 7 1 1 1 3 3 3 4 7 9 12 11 10 10 10 10 11 11 12 12
17 16 18 14 10 11 6 3 1 6 2 5 6 7 5 4 1 2 2 1 0 1 1 3 5 1 1 1 2 0 1 0 1 0 1 3 0 4 2 5 4 3 2 6 7 3 2 4 3 3 3 8 7 5 8 10 4 9 9 3 1 1 1 2 5 3 1 1 7 3 3 2 6 3 2 3 7 9 12 14 12 12 12 12 12 12 12 11
17 15 14 11 8 3 2 3 9 8 6 7 7 7 4 1 2 1 1 0 1 1 1 1 1 3 2 4 1 0 2 2 1 0 2 4 2 0 0 2 3 1 2 2 3 7 5 5 5 2 6 6 4 3 8 10 14 2 7 3 2 2 3 3 5 2 3 1 5 3 3 3 2 3 5 6 7 8 7 5 8 8 10 11 11 12 11 12
17 15 12 7 3 2 3 4 9 8 6 5 7 3 2 3 2 1 1 1 1 1 0 1 2 2 5 5 3 1 1 1 1 3 1 1 1 1 2 0 4 3 2 4 4 5 4 3 0 4 6 2 1 5 0 4 4 1 1 1 4 4 7 2 4 3 1 3 5 1 5 2 2 3 4 10 5 3 7 7 10 11 13 13 12 11 12 12
18 15 12 6 5 2 5 3 0 2 4 7 5 3 3 2 2 0 2 2 1 1 2 2 0 2 3 1 3 3 4 0 0 2 5 4 4 4 3 3 2 1 3 1 5 4 4 6 3 7 3 9 2 2 7 2 1 3 1 4 2 3 4 2 5 1 1 2 0 1 5 2 3 8 5 6 10 8 7 7 9 12 12 12 12 13 11 11
18 16 14 10 8 7 9 9 5 7 7 4 1 3 1 1 0 3 0 0 1 2 2 3 3 3 4 3 1 1 1 3 1 0 3 1 4 4 2 4 4 4 1 2 1 3 6 3 3 6 4 4 5 3 3 1 1 2 2 2 3 1 2 1 3 1 4 4 4 1 2 1 4 7 5 6 8 8 7 8 7 9 12 13 13 13 12 12
19 15 8 5 10 11 5 1 2 3 4 1 2 2 2 1 1 5 1 2 1 0 2 1 3 3 4 5 2 4 1 2 4 2 3 2 3 2 3 4 4 0 1 1 1 1 1 3 6 1 2 1 4 7 8 4 2 5 2 3 5 6 2 1 1 1 2 4 4 2 1 3 1 1 2 4 2 3 5 5 6 7 8 9 10 10 11 11
21 13 3 2 6 10 13 7 4 6 3 2 5 2 1 1 2 1 1 1 2 0 1 0 4 3 1 1 1 1 3 1 2 4 2 6 5 3 5 5 4 4 1 3 2 2 3 4 8 5 2 1 2 3 4 3 2 1 2 5 5 4 7 1 4 3 1 2 2 1 2 3 3 2 4 1 1 1 1 2 4 5 5 7 9 11 13 13
10 3 3 2 3 4 9 7 5 2 2 5 3 1 2 3 1 2 0 2 1 2 2 3 3 2 0 1 2 1 2 1 2 3 1 3 2 4 3 2 5 9 5 5 3 2 2 2 2 7 0 5 6 2 2 5 1 1 1 3 4 2 7 3 1 1 1 3 3 0 6 4 7 4 2 4 1 1 2 2 4 5 6 8 9 11 12 12
4 2 1 2 3 3 6 7 6 3 2 4 3 2 5 3 6 2 2 0 0 5 4 5 3 5 4 4 2 2 1 2 1 2 1 0 2 5 2 5 5 6 9 8 2 3 3 6 5 1 5 1 3 5 3 2 4 5 1 3 1 1 4 2 2 2 4 1 4 2 1 6 4 2 4 5 3 2 1 2 2 3 5 9 9 10 12 14
4 3 1 1 2 5 6 9 8 2 3 3 1 5 2 1 2 4 1 1 2 0 3 4 2 5 3 4 3 3 0 5 1 2 2 3 3 4 6 2 5 10 11 5 4 2 2 3 5 2 4 7 4 2 3 0 1 4 2 2 1 1 2 4 3 1 1 2 3 5 2 4 4 4 3 2 2 2 2 1 3 4 6 9 8 9 9 9
2 0 2 3 2 5 6 9 1 3 1 0 3 2 2 5 3 3 5 1 2 0 3 5 2 2 3 3 2 1 5 4 2 3 3 2 1 3 7 6 4 7 10 10 4 1 1 1 6 3 1 3 3 2 0 2 2 1 1 1 0 4 3 1 3 3 4 1 2 4 3 4 5 5 5 4 4 3 3 2 6 8 9 9 8 8 9 10
1 2 3 1 4 3 6 1 2 3 2 1 2 4 1 3 5 8 7 3 3 4 4 4 3 2 3 5 5 4 2 6 6 4 2 2 5 2 3 3 3 3 7 9 4 1 1 1 1 5 4 2 1 0 1 3 1 1 1 2 0 0 3 2 1 1 2 3 2 1 4 5 6 6 5 6 4 3 6 7 7 7 8 8 7 8 8 10
1 4 1 1 2 5 2 1 2 1 1 2 1 4 3 3 4 4 5 9 3 3 3 3 5 5 4 3 3 2 3 4 5 5 4 2 5 3 5 6 5 3 4 3 1 3 1 1 3 4 7 3 7 4 2 3 2 4 7 6 6 2 2 0 6 1 2 1 3 2 5 8 10 1 6 4 2 2 4 5 6 6 7 7 6 7 7 8
2 3 1 1 5 3 1 1 0 0 0 2 3 1 5 4 4 7 4 2 9 3 1 1 2 4 3 4 4 5 4 2 1 0 2 5 4 5 3 5 6 10 9 7 6 3 4 2 1 4 4 6 11 5 3 2 2 2 4 1 4 3 5 3 1 3 1 1 4 3 0 5 3 1 3 2 2 3 4 4 5 5 6 5 4 5 5 6
6 2 2 3 4 1 3 1 1 0 2 5 4 6 5 3 4 5 3 1 1 5 1 3 4 5 4 2 2 3 4 1 4 4 3 3 3 9 4 6 8 8 5 1 4 2 3 1 1 5 7 8 7 3 3 2 4 3 2 2 2 1 5 6 4 4 3 0 0 0 1 5 3 1 4 3 3 2 1 2 3 2 2 3 5 5 6 5
2 2 3 2 3 3 2 1 2 3 5 6 3 8 4 3 1 4 1 3 1 0 1 1 2 1 1 2 3 4 2 2 2 4 1 1 1 3 5 8 11 4 5 5 5 5 3 2 2 2 4 7 6 7 3 3 3 2 1 2 2 0 2 1 4 1 1 6 5 4 5 3 2 3 3 4 4 4 3 2 1 2 1 3 4 4 5 5
3 0 1 1 1 1 1 2 0 3 4 7 6 8 8 1 5 7 3 4 2 2 0 3 0 0 4 3 4 3 2 1 1 1 1 1 1 1 7 8 7 5 4 4 2 7 1 3 4 1 2 1 2 2 3 5 3 2 1 1 1 2 1 2 1 1 2 2 4 2 5 9 8 3 5 5 4 3 2 2 1 0 2 4 3 4 5 6
0 2 2 2 1 0 2 1 2 2 5 4 5 4 2 5 4 3 3 1 3 1 4 0 2 4 3 5 5 4 6 5 4 0 2 1 2 1 4 3 4 1 3 7 6 6 2 1 3 5 5 4 4 5 4 0 2 3 5 1 3 4 1 3 4 4 5 3 4 6 4 2 2 3 3 4 4 1 1 1 1 0 0 1 2 3 5 6
0 3 1 0 2 1 5 3 4 1 2 1 1 2 6 5 3 5 4 2 5 3 2 6 2 3 2 6 3 4 3 2 6 3 4 1 2 2 3 2 6 12 6 6 3 4 2 1 3 2 3 6 6 3 1 2 2 2 3 7 1 3 3 7 6 4 5 8 4 5 5 2 1 2 3 4 3 4 5 3 3 2 1 2 3 3 4 4
1 1 1 1 1 1 1 2 1 3 5 1 3 1 4 5 7 5 5 2 1 4 3 6 9 5 1 3 3 4 3 3 4 3 5 1 2 7 5 6 6 7 5 2 2 1 2 1 1 2 3 4 3 2 2 2 3 1 2 4 7 5 1 7 6 4 7 4 9 4 5 3 1 1 1 3 3 2 3 3 2 2 1 1 3 4 5 6
3 0 1 1 1 2 3 3 3 3 6 2 2 3 6 7 6 3 0 6 5 6 4 4 5 7 5 4 4 3 1 3 4 2 0 3 2 3 3 4 1 7 6 2 3 1 3 2 1 1 3 4 1 1 2 4 1 2 5 5 4 3 4 6 3 2 8 2 2 3 5 1 1 2 3 4 3 2 0 1 2 2 2 2 3 4 5 6
3 2 0 4 1 0 3 2 2 2 1 5 2 4 2 5 5 8 4 5 2 4 3 8 4 6 6 6 5 5 1 4 4 2 1 1 2 1 0 1 2 3 3 1 0 2 2 1 2 0 1 2 4 3 1 2 3 5 6 10 12 9 3 2 0 0 4 4 3 5 4 4 3 2 3 2 2 0 3 7 4 2 1 2 3 4 5 5
2 1 1 1 1 3 2 2 2 2 3 6 5 4 3 7 4 4 2 2 4 1 2 3 0 3 4 6 7 3 2 2 2 0 2 2 1 2 1 2 2 3 4 3 2 2 3 0 2 2 1 3 2 7 7 2 2 6 10 12 13 10 6 5 2 3 3 5 3 4 6 3 3 5 2 2 3 6 4 2 2 2 1 1 3 5 5 4
1 2 1 0 1 2 2 3 2 1 3 1 2 3 1 5 5 2 1 4 4 4 2 2 1 6 4 8 6 4 5 4 6 6 3 5 2 2 2 2 5 0 1 0 0 0 1 1 1 2 1 1 4 1 5 2 2 4 8 7 5 3 2 2 1 6 4 1 4 6 1 2 4 4 2 3 5 5 7 5 2 2 1 2 4 5 4 3
Wind_Direction
352 352 350 350 350 350 350 349 348 348 346 344 342 338 335 333 332 327 327 323 322 321 320 321 320 321 323 326 328 333 346 347 335 11 213 240 200 199 184 138 163 159 142 134 133 141 187 204 223 219 134 197 238 311 249 135 131 87 86 123 356 204 103 220 207 186 181 265 164 116 182 117 117 120 97 69 29 53 48 34 347 40 56 89 119 120 134 142
349 350 350 349 349 349 347 347 348 347 345 342 343 339 335 332 331 328 323 322 322 318 318 318 319 319 322 325 331 339 344 324 302 284 233 234 206 176 173 152 160 155 138 145 164 175 162 203 215 196 189 230 79 257 114 298 119 112 134 100 239 188 240 164 205 201 152 264 161 137 158 121 152 142 201 123 179 116 51 352 9 68 68 96 116 128 140 149
349 348 347 347 347 347 346 346 346 345 343 342 341 339 335 330 328 325 323 321 318 320 317 317 317 318 319 326 327 346 349 335 289 271 263 204 228 182 155 154 161 156 162 165 183 175 174 183 165 173 192 304 331 258 50 266 108 233 127 239 253 216 247 223 183 223 195 139 14 60 127 123 145 140 173 152 168 168 176 155 82 125 132 138 134 139 147 154
347 346 346 346 346 345 346 346 344 343 342 342 340 339 336 331 329 325 322 320 320 317 318 315 314 318 322 323 329 336 41 315 238 255 274 178 176 176 154 160 162 164 120 99 156 157 180 133 136 175 133 268 303 332 315 221 123 245 124 194 236 220 321 276 192 227 209 157 154 133 128 120 190 151 163 142 131 206 223 208 168 161 152 150 146 149 153 156
346 346 346 345 344 345 345 344 342 341 341 340 340 338 335 331 328 325 321 319 319 316 313 314 315 315 322 323 328 4 4 65 251 225 248 160 158 170 157 163 163 153 136 117 128 184 214 146 146 188 263 308 294 338 248 199 198 129 219 216 187 153 256 240 201 170 159 171 130 139 112 190 126 117 167 168 165 199 205 191 202 158 154 151 152 157 156 156
345 345 344 344 344 345 343 342 340 339 339 339 339 338 334 330 327 324 321 318 317 313 310 313 312 318 326 327 352 98 116 95 286 314 140 153 147 163 160 161 153 133 122 137 160 183 214 162 141 175 239 189 271 226 283 216 164 289 277 239 234 221 241 259 179 174 146 146 154 157 186 114 141 166 199 197 179 231 210 151 154 154 161 157 151 154 158 160
344 344 344 344 343 342 342 340 339 338 337 337 337 336 334 331 325 323 320 319 314 311 310 309 312 320 334 338 111 13 147 272 328 242 133 142 147 152 158 154 138 132 133 148 177 169 207 163 160 187 338 280 254 234 267 257 217 222 262 291 286 191 221 222 207 140 169 143 189 164 137 124 155 149 157 199 238 203 172 127 140 138 142 150 154 167 161 163
342 343 343 342 342 340 339 338 337 336 337 335 334 335 333 329 324 321 320 318 314 309 307 305 313 322 357 18 21 359 39 255 259 309 141 129 129 134 146 148 147 145 139 172 172 189 160 195 180 158 218 215 237 173 301 25 169 228 264 252 263 175 233 247 236 186 157 166 130 133 130 180 170 165 121 223 192 136 145 116 128 135 143 156 161 165 164 162
341 341 341 341 340 340 339 336 335 335 334 334 334 332 333 328 324 321 318 317 314 307 297 302 312 318 117 120 134 33 252 239 274 202 133 122 124 117 132 144 173 158 170 156 184 173 150 222 200 185 233 246 244 274 269 259 290 207 237 280 277 265 268 245 246 205 174 148 158 119 152 103 156 124 199 206 171 159 140 124 132 140 151 163 171 171 168 168
339 338 338 340 340 338 337 336 334 333 332 331 332 332 329 329 321 318 316 317 315 305 292 297 308 336 41 13 50 149 256 316 25 131 134 125 121 128 159 157 160 167 163 196 157 179 190 184 193 207 234 274 273 259 228 141 253 185 253 251 272 279 313 258 218 181 171 134 165 158 96 106 159 128 296 119 156 146 134 136 143 148 162 167 169 175 173 171
337 337 336 337 337 336 335 334 333 332 330 331 330 329 329 324 321 311 312 309 309 303 291 296 332 11 50 321 122 200 313 45 15 131 138 130 126 138 178 167 168 171 176 149 200 205 212 276 195 265 167 227 333 291 226 229 329 281 269 303 281 292 264 268 283 112 122 172 171 127 84 114 126 82 231 175 153 148 139 144 154 156 163 171 171 172 175 174
334 334 334 335 335 333 333 333 332 331 329 329 329 328 327 322 317 312 306 304 294 294 286 286 9 42 165 72 164 218 356 113 64 121 141 143 144 163 162 168 173 176 172 175 214 213 226 246 4 315 232 351 301 309 286 284 258 261 340 313 308 342 332 11 355 126 141 91 161 148 86 49 156 221 247 162 151 143 142 149 163 162 166 170 176 170 173 173
332 333 333 333 332 332 332 330 330 329 328 327 328 326 323 320 314 309 306 299 276 255 251 285 310 121 81 307 232 237 302 95 106 110 103 54 79 61 84 86 122 76 156 107 196 227 242 270 338 317 289 353 290 266 303 341 303 308 23 182 323 345 338 338 51 83 112 100 173 160 339 272 230 211 351 149 151 135 138 153 165 168 168 172 177 178 171 168
331 331 331 330 330 331 331 330 329 328 326 327 326 324 321 317 311 306 305 273 263 246 245 257 99 21 82 236 277 248 226 141 101 105 147 90 98 45 70 91 125 354 351 315 282 210 212 240 270 272 283 264 279 300 334 322 5 271 261 74 323 10 297 297 54 140 85 197 185 288 200 286 273 232 151 156 160 149 152 159 166 164 170 173 178 181 178 176
330 329 329 330 330 331 330 330 329 327 327 326 324 322 319 312 309 305 293 268 238 230 227 127 41 71 51 272 261 299 143 98 119 179 181 135 120 65 82 98 149 217 262 283 301 10 185 177 229 277 267 128 265 353 308 347 351 325 1 309 331 57 277 307 256 167 124 168 217 95 71 238 275 306 143 157 165 152 149 160 162 163 168 174 174 179 185 185
329 328 327 329 332 331 330 329 328 328 327 325 324 319 314 305 301 297 282 237 152 179 54 327 267 138 88 308 109 97 50 122 250 184 195 126 145 156 160 126 138 181 237 298 255 283 317 343 233 217 282 321 281 273 310 359 345 350 68 290 322 354 282 337 21 246 62 108 275 227 209 317 18 72 144 152 161 154 139 147 157 156 166 171 177 178 179 163
328 326 327 330 331 331 330 329 330 329 328 326 323 317 309 295 278 282 94 134 139 87 183 93 57 220 116 243 275 358 228 248 145 83 142 78 100 132 117 104 169 170 137 292 308 144 284 159 287 330 320 247 127 81 338 355 322 322 6 218 222 325 323 310 307 235 182 135 190 245 227 226 351 152 157 161 161 144 143 138 149 170 173 177 177 184 180 182
329 329 329 328 330 331 330 330 330 330 329 328 324 312 306 293 248 125 73 71 338 182 298 218 211 333 281 321 166 217 155 222 150 121 107 145 108 132 133 150 137 133 124 98 203 134 212 252 19 228 327 317 141 105 109 249 231 9 9 6 331 286 213 253 299 273 146 261 174 197 247 232 119 147 170 163 152 154 159 150 148 165 161 182 196 192 195 189
329 329 328 326 326 329 330 329 330 330 331 330 319 314 39 101 104 275 108 196 88 17 7 253 132 108 176 203 289 304 290 206 107 124 145 129 181 135 262 124 111 128 111 93 293 129 314 244 25 339 275 250 223 180 201 213 150 92 34 302 274 316 314 291 261 243 178 214 224 173 210 220 160 159 170 168 160 160 155 139 128 149 160 178 197 211 200 198
328 326 325 323 325 328 328 329 328 330 334 334 350 346 340 10 22 336 2 14 228 194 122 188 189 326 310 272 274 252 255 191 142 338 129 171 120 165 236 108 82 62 112 174 188 211 127 178 225 225 238 243 203 195 224 233 285 329 339 334 288 292 286 277 274 225 203 204 231 211 222 94 178 176 174 176 163 155 163 160 156 162 168 186 196 203 203 200
325 326 323 323 324 327 326 326 328 330 332 319 301 297 297 150 54 308 281 234 218 233 221 224 192 207 244 310 288 345 83 308 50 172 173 145 109 121 220 88 45 149 240 173 149 271 86 224 242 231 240 211 223 206 250 305 318 283 313 335 305 246 279 284 302 335 211 174 307 251 185 197 172 193 174 169 173 186 178 179 171 169 177 179 197 200 205 205
327 325 325 323 322 326 324 326 325 328 339 24 283 226 267 221 137 173 95 332 312 227 222 246 330 283 286 247 242 166 75 74 249 22 349 141 162 128 248 110 128 171 297 86 20 33 213 240 252 250 30 207 235 240 231 235 286 290 270 293 318 285 230 286 298 342 127 169 279 336 180 220 193 195 184 187 188 193 187 188 184 173 178 181 190 201 203 185
327 326 325 326 325 323 325 321 324 330 300 143 353 304 246 264 350 318 198 259 273 247 157 173 221 243 275 232 236 139 114 146 198 216 183 132 127 192 146 107 114 169 80 107 172 101 320 262 286 245 221 269 293 274 289 305 280 264 283 295 259 258 38 303 308 24 10 111 256 177 156 256 182 177 204 206 189 169 191 189 186 184 182 187 191 190 193 197
325 327 326 328 328 326 320 324 316 299 231 218 251 226 253 309 317 358 129 229 300 305 190 211 167 193 231 144 191 128 150 217 111 201 233 128 150 188 110 153 136 88 214 142 147 184 232 209 121 37 60 168 273 284 292 282 288 232 214 235 262 272 237 193 263 344 352 12 110 93 13 339 201 169 208 210 203 154 175 183 178 193 200 194 186 192 197 196
325 326 328 327 329 325 321 318 40 210 255 205 248 250 264 270 280 229 116 344 358 302 191 100 207 234 231 309 117 146 220 65 214 169 171 145 138 111 225 178 101 207 181 171 118 261 272 274 48 322 316 214 224 271 241 191 261 306 223 211 231 248 268 232 270 316 10 339 274 137 15 307 255 208 216 191 192 213 175 187 198 187 197 192 195 199 201 206
322 325 329 329 328 333 308 326 346 323 325 237 223 236 243 268 236 184 103 82 313 272 352 285 166 323 146 198 124 156 72 252 211 194 153 195 156 137 98 74 126 216 193 130 187 211 231 284 201 253 251 237 207 231 227 155 215 25 275 196 224 243 252 271 245 132 307 262 290 322 144 276 339 219 219 189 208 216 195 199 199 194 192 194 200 198 198 199
321 322 327 330 332 340 346 258 332 286 324 314 73 356 321 315 101 150 32 357 37 223 154 252 54 243 203 195 135 93 77 266 12 96 126 169 180 145 113 223 44 8 147 158 44 276 171 285 301 294 272 243 244 272 227 165 144 232 239 117 180 217 240 242 180 185 221 241 346 23 105 194 312 295 285 216 213 226 224 218 206 201 195 197 200 198 198 200
316 320 325 327 326 340 249 311 331 262 231 106 346 341 323 303 213 52 80 79 239 55 187 257 222 305 76 313 142 142 196 188 118 245 181 181 119 333 174 206 179 189 188 100 192 259 146 251 248 291 190 215 230 215 204 162 160 221 256 160 235 225 231 206 167 193 220 25 288 327 268 48 259 264 283 184 212 232 237 227 214 207 201 198 200 200 199 199
317 317 321 319 311 295 265 227 230 247 240 357 337 327 333 314 106 96 132 132 157 116 18 110 280 60 357 28 169 83 16 27 118 254 55 80 357 143 202 220 182 192 235 164 205 283 275 219 238 224 242 271 233 228 158 171 204 271 274 284 80 41 59 153 146 128 314 52 283 263 201 146 283 287 107 165 226 239 234 227 219 205 201 198 197 200 199 197
312 313 312 311 314 250 185 213 230 242 326 325 320 312 306 61 40 43 23 267 125 245 214 237 121 222 102 133 289 348 253 318 75 28 51 153 232 25 157 144 153 170 261 359 236 233 251 260 245 259 229 215 243 243 169 192 216 235 10 342 311 45 27 27 66 106 68 349 259 269 211 125 295 264 194 175 216 209 213 222 222 206 203 202 199 196 196 195
309 303 302 305 270 241 147 263 249 255 259 292 303 293 80 39 114 116 95 235 79 269 41 69 195 50 134 137 195 314 92 320 24 126 93 91 25 50 5 356 35 54 27 352 300 302 326 314 301 241 222 239 183 297 152 207 228 200 255 205 22 337 8 34 344 37 115 271 264 267 182 113 154 292 258 237 252 209 178 198 200 202 200 197 196 196 195 194
304 297 285 253 216 265 189 222 290 359 331 314 324 68 73 273 13 133 185 11 66 246 144 187 317 133 144 78 101 173 176 13 225 128 155 176 139 178 223 171 179 71 340 289 273 351 310 255 234 297 229 185 204 274 288 19 32 99 99 32 69 281 22 298 11 322 205 194 272 66 138 45 244 226 224 236 239 236 208 202 197 199 199 192 194 193 191 191
304 294 280 253 209 219 243 272 334 317 308 304 43 58 60 103 111 257 323 303 280 170 257 129 173 127 149 100 233 221 255 167 259 161 115 57 133 237 248 188 188 152 189 244 249 13 277 289 325 278 317 195 153 203 295 356 337 136 230 135 79 44 40 271 277 223 304 297 260 171 291 277 249 290 239 235 241 234 224 211 196 195 192 190 191 188 187 190
306 299 282 205 205 213 231 227 237 312 337 10 73 45 36 68 249 187 136 206 168 131 106 143 76 56 126 164 236 155 127 252 145 212 123 151 141 224 262 255 142 137 102 144 264 182 41 339 284 188 275 297 165 189 183 188 166 213 145 148 190 142 160 261 225 254 224 211 282 292 88 233 60 234 201 222 239 241 237 212 193 192 197 191 182 180 183 187
311 301 217 196 220 234 231 240 284 343 340 67 58 88 135 249 228 191 241 277 273 233 82 11 109 91 64 344 277 230 162 219 153 117 160 130 208 180 195 219 223 128 134 147 262 73 207 217 255 221 232 116 216 234 150 112 310 258 167 86 92 228 147 199 210 158 277 344 340 224 210 179 172 250 275 279 307 352 311 179 147 174 159 153 162 179 188 191
314 87 133 184 219 231 189 200 207 334 35 65 81 95 204 201 2 174 53 176 140 137 144 46 72 117 233 294 310 188 295 140 244 97 274 173 188 197 216 203 188 186 145 166 202 185 17 284 266 307 239 203 231 132 235 138 189 259 98 202 218 191 115 88 69 10 99 58 249 235 322 306 297 336 323 338 75 357 32 116 160 169 165 161 181 186 190 192
346 285 67 214 243 124 155 151 151 158 58 92 96 254 216 285 204 178 255 184 210 141 106 124 244 147 193 211 222 226 220 76 246 118 236 201 298 206 225 252 168 170 192 154 280 191 149 256 294 82 295 276 240 209 208 221 145 88 116 248 227 99 105 132 239 336 62 111 266 22 259 303 29 289 327 348 353 274 39 168 184 169 161 182 191 190 192 193
340 325 247 19 38 118 140 154 144 102 79 81 221 253 201 239 249 197 258 342 29 14 109 155 276 126 221 148 233 180 233 151 254 125 217 202 245 202 172 200 199 179 198 191 176 273 134 323 298 238 229 273 340 66 19 342 358 154 186 205 91 317 342 319 86 341 335 318 296 314 288 261 178 247 337 306 288 291 165 145 139 176 195 205 200 201 201 198
263 257 42 344 137 134 154 170 133 81 59 60 255 329 248 238 260 236 235 196 167 106 146 215 130 238 135 197 205 114 148 173 196 174 116 232 206 210 184 178 223 202 185 160 187 215 62 147 295 288 173 311 348 65 97 288 345 99 116 46 320 107 167 142 201 174 115 263 48 293 22 274 215 216 188 237 232 243 136 191 215 206 205 204 204 196 190 189
52 51 7 18 123 142 151 204 52 41 79 206 222 232 249 295 264 258 254 200 249 165 233 165 188 122 186 205 152 162 227 140 156 216 129 236 214 276 201 226 191 189 162 170 173 178 229 125 240 283 295 5 302 233 196 166 148 55 211 312 304 342 214 107 45 129 218 185 173 220 331 283 263 213 174 216 217 209 177 202 218 219 215 211 203 192 189 193
284 101 343 105 122 127 179 31 63 110 238 267 189 247 307 250 311 276 250 199 221 228 168 164 158 195 184 127 261 156 158 166 166 159 187 234 178 314 234 176 138 113 119 128 204 196 135 97 204 306 354 330 251 234 197 161 167 169 168 211 176 120 219 172 267 18 86 111 232 127 252 268 272 178 214 210 225 207 215 198 211 225 220 208 199 193 189 191
73 64 316 104 129 164 69 45 308 150 93 259 259 227 290 280 284 272 291 237 195 236 189 178 202 185 146 186 178 176 128 130 173 107 249 187 232 197 277 171 149 144 139 178 191 223 152 163 95 286 234 264 271 295 191 182 132 181 140 234 151 143 105 117 173 276 25 241 111 157 105 275 251 255 258 238 199 211 215 188 221 217 216 208 195 185 193 194
43 129 295 135 169 302 53 33 300 19 221 237 290 283 231 258 238 273 331 275 232 189 209 188 198 177 231 142 201 128 139 123 166 200 197 213 250 216 256 184 133 146 99 172 105 221 147 299 357 293 304 289 311 329 25 98 141 86 18 77 84 197 180 187 182 185 145 44 11 356 240 252 284 290 278 245 245 262 333 195 224 223 198 185 169 173 177 169
119 101 33 56 193 354 85 8 314 294 272 277 252 261 232 248 254 316 250 282 225 88 211 188 17 135 136 142 101 158 198 83 224 178 330 159 301 260 233 174 153 167 150 215 134 218 130 273 129 330 358 331 346 352 1 334 47 85 263 274 208 93 68 125 97 96 249 217 172 124 247 288 273 343 14 49 46 32 358 350 173 181 178 158 167 168 160 154
107 313 45 314 218 4 36 188 297 291 299 313 317 316 334 301 219 225 253 300 326 27 60 25 344 136 59 75 95 95 54 156 119 235 105 161 251 314 23 133 186 164 214 202 181 146 89 168 118 142 185 35 334 344 302 311 290 264 158 338 339 263 160 105 177 186 159 278 120 145 252 252 276 342 35 36 24 7 345 342 35 116 172 168 157 164 158 159
85 113 311 27 343 347 272 181 203 215 307 325 343 303 311 323 317 276 182 255 61 5 82 293 342 54 63 77 49 38 35 33 86 27 70 312 301 301 185 195 138 187 191 151 144 135 143 131 127 157 149 183 207 215 249 88 356 4 299 155 263 268 228 118 109 99 203 205 189 235 183 278 338 353 3 352 355 334 292 325 310 317 105 135 140 159 171 167
88 90 151 215 349 212 271 298 281 6 273 303 330 323 339 339 262 323 16 65 358 16 47 43 353 58 354 73 108 62 353 24 3 75 9 329 267 254 309 50 34 30 83 92 70 83 77 103 223 139 196 204 194 210 243 181 242 243 339 316 323 245 175 150 154 210 175 107 276 257 198 156 261 291 345 351 332 302 293 307 315 320 266 182 164 147 137 139
82 268 111 202 134 237 2 320 196 269 281 240 250 353 330 352 5 21 323 48 278 35 85 352 27 40 70 128 121 84 340 39 36 16 317 292 349 345 22 358 59 348 44 54 19 126 140 150 283 134 264 242 216 225 245 219 203 227 313 309 324 298 184 183 225 195 138 166 205 259 157 137 248 239 283 267 250 251 295 302 252 219 159 128 142 156 167 172
96 113 140 338 145 258 179 275 314 269 285 249 225 358 3 11 7 342 254 324 19 5 58 93 6 2 31 32 100 104 77 69 356 318 124 323 19 347 19 346 328 13 46 38 11 137 96 4 252 138 286 312 356 246 247 143 88 56 7 350 342 349 236 229 264 211 192 192 211 141 152 187 236 302 312 294 303 274 186 49 56 102 185 192 187 194 186 183
10 45 314 352 75 297 284 323 294 29 39 344 58 344 359 356 353 342 357 41 30 6 8 73 15 5 22 53 71 84 99 146 141 88 257 130 334 67 93 194 280 334 48 57 71 352 103 272 274 73 23 312 308 308 89 10 59 42 354 8 3 351 4 47 351 342 78 47 103 141 98 59 350 326 296 309 356 68 55 32 9 338 339 202 216 222 213 195
297 300 327 25 34 315 312 11 11 37 36 346 47 326 10 2 359 337 38 60 63 2 3 123 235 356 13 48 60 90 213 169 187 154 216 147 78 232 116 286 171 330 1 2 30 329 65 306 63 72 55 313 318 350 332 31 82 57 18 3 357 355 16 0 10 281 141 156 165 84 67 35 317 328 308 352 9 45 23 3 5 335 332 291 249 245 232 212
288 275 354 188 86 341 10 320 329 45 17 285 351 310 5 319 300 289 107 36 50 57 352 212 211 90 16 37 23 336 312 235 239 250 220 225 234 264 225 179 155 227 260 116 186 44 99 111 34 36 72 264 264 7 318 20 45 10 353 327 328 327 346 286 282 29 39 182 77 97 188 225 254 276 314 352 18 17 15 11 358 328 279 222 247 256 252 233